Powrót do katalogu

FENGYUN 1C DEB

AktywnySSO
NORAD 31065·DEBRIS·🇨🇳 China

Wystrzelony May 10, 1999 z Taiyuan Satellite Launch Center

Loading…

Następne Przeloty (najbliższe 24 godziny)

TLE

Starzejące sięSource: Space-Track

Epoka: Sep 5, 2026, 18:51 UTC

1 31065U 99025BFK 26248.78598441  .00000930  00000-0  38084-3 0  9996
2 31065  98.4531 264.8319 0033366 325.7399  34.1630 14.29166672683917

Śledź FENGYUN 1C DEB w czasie rzeczywistym z AllMySat

Download on the App Store